Weather History for Moncks Corner, SC

Change the Weather History Date:

Wednesday, December 19, 2012

  Actual Average (KCHS) Record (KCHS)
Temperature  
Mean Temperature 55 °F 50 °F  
Max Temperature 71 °F 61 °F 82 °F (1967)
Min Temperature 39 °F 39 °F 16 °F (1953)
Degree Days  
Heating Degree Days 10 15  
Month to date heating degree days 252  
Since 1 July heating degree days 544  
Cooling Degree Days 0 0  
Month to date cooling degree days 0  
Year to date cooling degree days 2297  
Growing Degree Days 5 (Base 50)    
Moisture  
Dew Point 38 °F    
Average Humidity 61    
Maximum Humidity 93    
Minimum Humidity 27    
Precipitation  
Precipitation 0.00 in 0.11 in 1.39 in (1999)
Month to date precipitation 1.82  
Year to date precipitation 49.74  
Sea Level Pressure  
Sea Level Pressure 30.06 in    
Wind  
Wind Speed 2 mph (WSW)    
Max Wind Speed 8 mph    
Max Gust Speed -    
Visibility 8 miles    
Events      
T = Trace of Precipitation, MM = Missing Value Source: NWS Daily Summary

Daily Weather History Graph

Daily Weather History Graph

Search for Another Location

Airport:

Trip Planner

Search our weather history database for the weather conditions in past years. The results will help you decide how hot, cold, wet, or windy it might be!

Date:

Astronomy

Dec. 19, 2012 Rise Set
Actual Time 7:18 AM EST 5:16 PM EST
Civil Twilight 6:51 AM EST 5:43 PM EST
Nautical Twilight 6:20 AM EST 6:14 PM EST
Astronomical Twilight 5:50 AM EST 6:45 PM EST
Moon 11:46 AM EST (12/19) No Moon Set
Length of Visible Light 10h 52m
Length of Day
9h 57m
Waxing Crescent, 45% of the Moon is Illuminated
Dec 19
Waxing Crescent
Dec 20
First Quarter
Dec 28
Full
Jan 4
Last Quarter
Jan 11
New

Hourly Weather History & Observations

Time (EST) Temp. Windchill Dew Point Humidity Pressure Visibility Wind Dir Wind Speed Gust Speed Precip Events Conditions
12:15 AM 46.4 °F 45.2 °F 35.6 °F 66% 30.00 in 10.0 mi WSW 3.5 mph - N/A   Unknown
12:35 AM 46.4 °F 45.2 °F 35.6 °F 66% 30.00 in 10.0 mi WSW 3.5 mph - N/A   Unknown
12:55 AM 46.4 °F - 35.6 °F 66% 30.00 in 7.0 mi Calm Calm - N/A   Unknown
1:15 AM 48.2 °F - 35.6 °F 62% 30.00 in 10.0 mi Calm Calm - N/A   Unknown
1:35 AM 46.4 °F 45.2 °F 35.6 °F 66% 30.00 in 10.0 mi WSW 3.5 mph - N/A   Unknown
1:55 AM 46.4 °F - 35.6 °F 66% 30.00 in 10.0 mi Calm Calm - N/A   Unknown
2:15 AM 46.4 °F - 33.8 °F 62% 30.00 in 7.0 mi Calm Calm - N/A   Unknown
2:35 AM 46.4 °F - 33.8 °F 62% 30.00 in 7.0 mi Calm Calm - N/A   Unknown
2:55 AM 44.6 °F 43.1 °F 33.8 °F 66% 30.01 in 10.0 mi WSW 3.5 mph - N/A   Unknown
3:15 AM 46.4 °F 45.2 °F 33.8 °F 62% 30.02 in 10.0 mi West 3.5 mph - N/A   Unknown
3:35 AM 46.4 °F 45.2 °F 33.8 °F 62% 30.03 in 10.0 mi WSW 3.5 mph - N/A   Unknown
3:55 AM 44.6 °F - 33.8 °F 66% 30.02 in 10.0 mi Calm Calm - N/A   Unknown
4:15 AM 44.6 °F 43.1 °F 33.8 °F 66% 30.02 in 10.0 mi WSW 3.5 mph - N/A   Unknown
4:35 AM 44.6 °F 43.1 °F 33.8 °F 66% 30.02 in 7.0 mi WSW 3.5 mph - N/A   Unknown
4:55 AM 42.8 °F - 33.8 °F 70% 30.02 in 10.0 mi Calm Calm - N/A   Unknown
5:15 AM 42.8 °F - 33.8 °F 70% 30.03 in 10.0 mi Calm Calm - N/A   Unknown
5:35 AM 41.0 °F - 33.8 °F 76% 30.03 in 10.0 mi Calm Calm - N/A   Unknown
5:55 AM 41.0 °F - 33.8 °F 76% 30.04 in 7.0 mi Calm Calm - N/A   Unknown
6:15 AM 41.0 °F - 33.8 °F 76% 30.05 in 7.0 mi Calm Calm - N/A   Unknown
6:35 AM 39.2 °F - 33.8 °F 81% 30.05 in 10.0 mi Calm Calm - N/A   Unknown
6:55 AM 39.2 °F - 33.8 °F 81% 30.06 in 10.0 mi Calm Calm - N/A   Unknown
7:15 AM 39.2 °F - 33.8 °F 81% 30.06 in 7.0 mi Calm Calm - N/A   Unknown
7:35 AM 39.2 °F - 33.8 °F 81% 30.07 in 7.0 mi Calm Calm - N/A   Unknown
7:55 AM 41.0 °F - 33.8 °F 76% 30.08 in 7.0 mi Calm Calm - N/A   Unknown
8:15 AM 44.6 °F - 35.6 °F 71% 30.09 in 7.0 mi Calm Calm - N/A   Unknown
8:35 AM 46.4 °F - 35.6 °F 66% 30.09 in 10.0 mi Calm Calm - N/A   Unknown
8:55 AM 48.2 °F - 35.6 °F 62% 30.10 in 7.0 mi Calm Calm - N/A   Unknown
9:15 AM 51.8 °F - 37.4 °F 58% 30.10 in 7.0 mi Calm Calm - N/A   Unknown
9:35 AM 53.6 °F - 35.6 °F 51% 30.10 in 7.0 mi West 4.6 mph - N/A   Unknown
9:55 AM 55.4 °F - 37.4 °F 51% 30.11 in 7.0 mi West 3.5 mph - N/A   Unknown
10:15 AM 59.0 °F - 37.4 °F 45% 30.11 in 10.0 mi West 4.6 mph - N/A   Unknown
10:35 AM 60.8 °F - 39.2 °F 45% 30.11 in 10.0 mi West 4.6 mph - N/A   Unknown
10:55 AM 62.6 °F - 39.2 °F 42% 30.11 in 10.0 mi West 4.6 mph - N/A   Unknown
11:15 AM 64.4 °F - 37.4 °F 37% 30.11 in 10.0 mi West 3.5 mph - N/A   Unknown
11:35 AM 66.2 °F - 37.4 °F 35% 30.10 in 10.0 mi WNW 4.6 mph - N/A   Unknown
11:55 AM 66.2 °F - 37.4 °F 35% 30.09 in 7.0 mi Calm Calm - N/A   Unknown
12:15 PM 68.0 °F - 35.6 °F 30% 30.08 in 10.0 mi WNW 4.6 mph - N/A   Unknown
12:35 PM 69.8 °F - 35.6 °F 28% 30.08 in 10.0 mi WNW 5.8 mph - N/A   Unknown
12:55 PM 69.8 °F - 33.8 °F 27% 30.07 in 10.0 mi WNW 5.8 mph - N/A   Unknown
1:15 PM 69.8 °F - 35.6 °F 28% 30.06 in 7.0 mi Calm Calm - N/A   Unknown
1:35 PM 69.8 °F - 35.6 °F 28% 30.05 in 10.0 mi West 5.8 mph - N/A   Unknown
1:55 PM - - - N/A% - - North - - N/A   Unknown
2:15 PM 69.8 °F - 35.6 °F 28% 30.05 in 10.0 mi WSW 5.8 mph - N/A   Clear
2:35 PM 71.6 °F - 37.4 °F 29% 30.05 in 10.0 mi WSW 8.1 mph - N/A   Clear
2:55 PM 71.6 °F - 37.4 °F 29% 30.05 in 7.0 mi West 5.8 mph - N/A   Clear
3:15 PM 71.6 °F - 37.4 °F 29% 30.04 in 10.0 mi SW 6.9 mph - N/A   Clear
3:35 PM 71.6 °F - 37.4 °F 29% 30.04 in 7.0 mi WSW 4.6 mph - N/A   Clear
3:55 PM 69.8 °F - 37.4 °F 31% 30.05 in 10.0 mi SW 4.6 mph - N/A   Clear
4:15 PM 69.8 °F - 39.2 °F 33% 30.05 in 7.0 mi WSW 4.6 mph - N/A   Clear
4:35 PM 68.0 °F - 39.2 °F 35% 30.05 in 10.0 mi WSW 4.6 mph - N/A   Clear
4:55 PM 66.2 °F - 39.2 °F 37% 30.05 in 7.0 mi WSW 3.5 mph - N/A   Clear
5:15 PM 62.6 °F - 41.0 °F 45% 30.05 in 10.0 mi Calm Calm - N/A   Clear
5:35 PM 59.0 °F - 44.6 °F 59% 30.06 in 10.0 mi Calm Calm - N/A   Clear
5:55 PM 57.2 °F - 44.6 °F 63% 30.06 in 7.0 mi Calm Calm - N/A   Clear
6:15 PM 55.4 °F - 44.6 °F 67% 30.07 in 7.0 mi Calm Calm - N/A   Clear
6:35 PM 53.6 °F - 44.6 °F 72% 30.07 in 5.0 mi Calm Calm - N/A   Haze
6:55 PM 51.8 °F - 44.6 °F 76% 30.08 in 5.0 mi Calm Calm - N/A   Haze
7:15 PM 51.8 °F - 44.6 °F 76% 30.08 in 7.0 mi Calm Calm - N/A   Clear
7:35 PM 51.8 °F - 44.6 °F 76% 30.09 in 7.0 mi Calm Calm - N/A   Clear
7:55 PM 50.0 °F - 44.6 °F 82% 30.10 in 7.0 mi Calm Calm - N/A   Clear
8:15 PM 48.2 °F - 44.6 °F 87% 30.10 in 5.0 mi Calm Calm - N/A   Haze
8:35 PM 48.2 °F - 42.8 °F 82% 30.11 in 7.0 mi Calm Calm - N/A   Clear
8:55 PM 48.2 °F - 42.8 °F 82% 30.11 in 10.0 mi Calm Calm - N/A   Clear
9:15 PM 46.4 °F - 42.8 °F 87% 30.11 in 7.0 mi Calm Calm - N/A   Clear
9:35 PM 46.4 °F - 42.8 °F 87% 30.11 in 7.0 mi Calm Calm - N/A   Clear
9:55 PM 46.4 °F - 42.8 °F 87% 30.11 in 7.0 mi Calm Calm - N/A   Clear
10:15 PM 44.6 °F - 42.8 °F 93% 30.11 in 7.0 mi Calm Calm - N/A   Clear
10:35 PM 44.6 °F - 41.0 °F 87% 30.11 in 7.0 mi Calm Calm - N/A   Clear
11:15 PM 44.6 °F - 41.0 °F 87% 30.12 in 7.0 mi Calm Calm - N/A   Clear
11:35 PM 44.6 °F - 41.0 °F 87% 30.12 in 7.0 mi Calm Calm - N/A   Clear
11:55 PM 42.8 °F - 41.0 °F 93% 30.12 in 7.0 mi Calm Calm - N/A   Clear